Change the Weather History Date:

Wednesday, March 26, 2014

  Actual Average Record
Temperature  
Mean Temperature 53 °F -  
Max Temperature 59 °F 58 °F 69 °F (2001)
Min Temperature 47 °F 44 °F 35 °F (1997)
Degree Days  
Heating Degree Days 12    
Growing Degree Days 3 (Base 50)    
Moisture  
Dew Point 45 °F    
Average Humidity 72    
Maximum Humidity 87    
Minimum Humidity 47    
Precipitation  
Precipitation 0.20 in - - ()
Sea Level Pressure  
Sea Level Pressure 29.98 in    
Wind  
Wind Speed 4 mph ()    
Max Wind Speed 9 mph    
Max Gust Speed -    
Visibility 6.3 miles    
Events Rain    
Averages and records for this station are not official NWS values.
T = Trace of Precipitation, MM = Missing Value Source: Averaged Metar Reports

Daily Weather History Graph

Daily Weather History Graph

Search for Another Location

Airport or City:

Trip Planner

Search our weather history database for the weather conditions in past years. The results will help you decide how hot, cold, wet, or windy it might be!

Date:

Astronomy

Mar. 26, 2014 Rise Set
Actual Time 5:58 AM EET 6:22 PM EET
Civil Twilight 5:31 AM EET 6:50 PM EET
Nautical Twilight 4:58 AM EET 7:22 PM EET
Astronomical Twilight 4:25 AM EET 7:56 PM EET
Moon 2:54 AM EET (3/26) 1:37 PM EET (3/26)
Length of Visible Light 13h 19m
Length of Day
12h 24m
Waning Crescent, 24% of the Moon is Illuminated
Mar 26
Waning Crescent
Mar 30
New
Apr 7
First Quarter
Apr 15
Full
Apr 22
Last Quarter

Hourly Weather History & Observations

Time (EET) Temp. Dew Point Humidity Pressure Visibility Wind Dir Wind Speed Gust Speed Precip Events Conditions
12:20 AM 50.0 °F 46.4 °F 87% 29.89 in - SSW 4.6 mph - N/A   Clear
12:50 AM 51.8 °F 46.4 °F 82% 29.89 in - SW 8.1 mph - N/A   Clear
1:20 AM 51.8 °F 46.4 °F 82% 29.89 in - SSW 5.8 mph - N/A   Clear
1:50 AM 51.8 °F 46.4 °F 82% 29.89 in - SW 5.8 mph - N/A   Clear
2:00 AM 51 °F 46 °F 76% 29.91 in 6 mi SW 5.8 mph - -  
2:20 AM 50.0 °F 46.4 °F 87% 29.89 in - SSW 4.6 mph - N/A   Clear
2:50 AM 48.2 °F 44.6 °F 87% 29.92 in - South 3.5 mph - N/A   Clear
3:20 AM 50.0 °F 46.4 °F 87% 29.92 in - Variable 1.2 mph - N/A   Clear
3:50 AM 50.0 °F 46.4 °F 87% 29.92 in - SSW 3.5 mph - N/A   Clear
4:20 AM 50.0 °F 46.4 °F 87% 29.92 in - SW 4.6 mph - N/A   Clear
4:50 AM 50.0 °F 44.6 °F 82% 29.92 in - Variable 2.3 mph - N/A   Clear
5:00 AM 50 °F 46 °F 79% 29.94 in 6 mi WSW 2.3 mph - -   Clear
5:20 AM 50.0 °F 44.6 °F 82% 29.92 in - SW 4.6 mph - N/A   Clear
5:50 AM 50.0 °F 44.6 °F 82% 29.92 in - Calm Calm - N/A   Clear
6:20 AM 50.0 °F 44.6 °F 82% 29.92 in - Variable 1.2 mph - N/A   Clear
6:50 AM 50.0 °F 46.4 °F 87% 29.95 in - Calm Calm - N/A   Clear
7:20 AM 51.8 °F 46.4 °F 82% 29.95 in - Variable 1.2 mph - N/A   Clear
7:50 AM 53.6 °F 46.4 °F 77% 29.95 in - Variable 1.2 mph - N/A   Clear
8:00 AM 53 °F 46 °F 69% 29.97 in 12 mi SE 1.2 mph - -   Clear
8:20 AM 53.6 °F 46.4 °F 77% 29.95 in - ESE 6.9 mph - N/A   Clear
8:50 AM 53.6 °F 46.4 °F 77% 29.98 in - ESE 6.9 mph - N/A   Clear
9:20 AM 55.4 °F 44.6 °F 67% 29.98 in - SE 8.1 mph - N/A   Clear
9:50 AM 55.4 °F 44.6 °F 67% 29.98 in - SSE 6.9 mph - N/A   Clear
10:20 AM 53.6 °F 44.6 °F 72% 29.98 in - South 4.6 mph - N/A   Clear
10:50 AM 53.6 °F 44.6 °F 72% 29.98 in 6.2 mi SSW 3.5 mph - N/A   Scattered Clouds
11:00 AM 54 °F 44 °F 60% 30.00 in 6 mi SSW 3.5 mph - -   Partly Cloudy
11:20 AM 55.4 °F 46.4 °F 72% 29.98 in 6.2 mi SSW 4.6 mph - N/A   Mostly Cloudy
11:50 AM 55.4 °F 44.6 °F 67% 29.98 in 6.2 mi SW 3.5 mph - N/A   Mostly Cloudy
12:20 PM 55.4 °F 44.6 °F 67% 29.98 in 6.2 mi SW 3.5 mph - N/A   Mostly Cloudy
12:50 PM 57.2 °F 44.6 °F 63% 30.01 in 6.2 mi SSW 5.8 mph - N/A   Mostly Cloudy
1:20 PM 57.2 °F 44.6 °F 63% 30.01 in 6.2 mi SSW 5.8 mph - N/A   Mostly Cloudy
1:50 PM 59.0 °F 44.6 °F 59% 30.01 in 6.2 mi SSW 6.9 mph - N/A   Mostly Cloudy
2:00 PM 59 °F 44 °F 47% 30.01 in 6 mi SSW 6.9 mph - -   Scattered Clouds
2:20 PM 59.0 °F 44.6 °F 59% 30.01 in 6.2 mi SSW 5.8 mph - N/A   Mostly Cloudy
2:50 PM 57.2 °F 44.6 °F 63% 30.01 in 6.2 mi SW 5.8 mph - N/A   Mostly Cloudy
3:20 PM 57.2 °F 44.6 °F 63% 30.01 in 6.2 mi SSW 4.6 mph - N/A   Mostly Cloudy
3:50 PM 57.2 °F 42.8 °F 59% 29.98 in 6.2 mi SW 4.6 mph - N/A   Mostly Cloudy
4:20 PM 57.2 °F 42.8 °F 59% 29.98 in 6.2 mi SSW 4.6 mph - N/A   Mostly Cloudy
4:50 PM 57.2 °F 42.8 °F 59% 29.98 in 6.2 mi SSW 4.6 mph - N/A   Mostly Cloudy
5:00 PM 57 °F 43 °F 49% 30.00 in 6 mi SSW 4.6 mph - -   Partly Cloudy
5:20 PM 55.4 °F 42.8 °F 63% 30.01 in 6.2 mi South 4.6 mph - N/A   Mostly Cloudy
5:50 PM 55.4 °F 44.6 °F 67% 30.01 in 6.2 mi SSW 5.8 mph - N/A   Mostly Cloudy
6:20 PM 53.6 °F 44.6 °F 72% 30.01 in 6.2 mi SSW 3.5 mph - N/A   Mostly Cloudy
6:50 PM 55.4 °F 44.6 °F 67% 30.01 in 6.2 mi SW 3.5 mph - N/A   Mostly Cloudy
7:20 PM 51.8 °F 44.6 °F 76% 30.01 in 6.2 mi South 9.2 mph - N/A   Mostly Cloudy
7:50 PM 51.8 °F 44.6 °F 76% 30.04 in 6.2 mi SSE 8.1 mph - N/A   Mostly Cloudy
8:00 PM 53 °F 45 °F 65% 30.04 in 6 mi SSE 8.1 mph - -   Partly Cloudy
8:20 PM 53.6 °F 44.6 °F 72% 30.04 in 6.2 mi SSE 5.8 mph - N/A   Mostly Cloudy
8:50 PM 53.6 °F 44.6 °F 72% 30.04 in 6.2 mi SE 4.6 mph - N/A   Mostly Cloudy
9:20 PM 53.6 °F 44.6 °F 72% 30.04 in 6.2 mi ESE 5.8 mph - N/A   Mostly Cloudy
9:50 PM 51.8 °F 44.6 °F 76% 30.04 in 6.2 mi East 4.6 mph - N/A   Mostly Cloudy
10:20 PM 51.8 °F 46.4 °F 82% 30.04 in 6.2 mi East 3.5 mph - N/A   Mostly Cloudy
10:50 PM 51.8 °F 44.6 °F 76% 30.04 in 6.2 mi East 4.6 mph - N/A   Mostly Cloudy
11:00 PM 53 °F 45 °F 65% 30.06 in 6 mi East 4.6 mph - -   Partly Cloudy
11:20 PM 53.6 °F 44.6 °F 72% 30.04 in 6.2 mi East 5.8 mph - N/A   Mostly Cloudy
11:50 PM 51.8 °F 44.6 °F 76% 30.04 in 5.0 mi East 4.6 mph - N/A Rain Light Rain Showers